This is the latest recevied weather packets stored in our database for station/object KD9NSC. If no packets are shown the sender has not sent any weather packets the latest 10 day(s).
| Time | Temp. | Humidity | Pressure | Rain* | Wind** | Luminosity | Snow |
|---|---|---|---|---|---|---|---|
| 1777830342 | 10.56° C | 82% | 1015.2 hPa | 0 mm | - | 14 W/m² | - |
| 1777830038 | 10.56° C | 80% | 1015.6 hPa | 0 mm | - | 19 W/m² | - |
| 1777829733 | 11.11° C | 79% | 1015.5 hPa | 0 mm | - | 25 W/m² | - |
| 1777829430 | 12.22° C | 74% | 1015.5 hPa | 0 mm | - | 26 W/m² | - |
| 1777829128 | 12.22° C | 68% | 1015.6 hPa | 0 mm | - | 27 W/m² | - |
| 1777828824 | 12.78° C | 65% | 1015.4 hPa | 0 mm | - | 37 W/m² | - |
| 1777828521 | 13.33° C | 63% | 1015.4 hPa | 0 mm | - | 50 W/m² | - |
| 1777828218 | 13.33° C | 63% | 1015.4 hPa | 0 mm | - | 58 W/m² | - |
| 1777827914 | 13.33° C | 64% | 1015.6 hPa | 0 mm | - | 57 W/m² | - |
| 1777827612 | 13.89° C | 63% | 1015.6 hPa | 0 mm | - | 61 W/m² | - |
| 1777827310 | 13.89° C | 62% | 1015.6 hPa | 0 mm | - | 68 W/m² | - |
| 1777827005 | 13.89° C | 61% | 1015.6 hPa | 0 mm | - | 82 W/m² | - |
| 1777826703 | 14.44° C | 62% | 1015.9 hPa | 0 mm | - | 87 W/m² | - |
| 1777826399 | 14.44° C | 58% | 1015.6 hPa | 0 mm | - | 79 W/m² | - |
| 1777826096 | 14.44° C | 59% | 1015.8 hPa | 0 mm | - | 69 W/m² | - |
| 1777825793 | 14.44° C | 55% | 1015.7 hPa | 0 mm | - | 68 W/m² | - |
| 1777825491 | 15° C | 58% | 1015.9 hPa | 0 mm | - | 67 W/m² | - |
| 1777825188 | 15° C | 55% | 1015.8 hPa | 0 mm | - | 72 W/m² | - |
| 1777824884 | 15° C | 56% | 1015.6 hPa | 0 mm | - | 82 W/m² | - |
| 1777824581 | 15° C | 57% | 1015.9 hPa | 0 mm | - | 83 W/m² | - |
| 1777824278 | 15° C | 55% | 1015.7 hPa | 0 mm | - | 75 W/m² | - |
| 1777823973 | 14.44° C | 59% | 1015.6 hPa | 0 mm | - | 67 W/m² | - |
| 1777823671 | 14.44° C | 54% | 1015.7 hPa | 0 mm | - | 61 W/m² | - |
| 1777823367 | 14.44° C | 57% | 1015.8 hPa | 0 mm | - | 62 W/m² | - |
| 1777823065 | 14.44° C | 56% | 1015.8 hPa | 0 mm | - | 62 W/m² | - |
* Rain latest hour (hover to see other rain measurements)
** Current wind speed in m/s (hover to see current wind gust speed)